Weather History for Quincy, IL

Change the Weather History Date:

Sunday, December 25, 2011

  Actual Average Record
Temperature  
Mean Temperature 38 °F 28 °F  
Max Temperature 46 °F 35 °F 62 °F (1922)
Min Temperature 30 °F 20 °F -16 °F (1983)
Degree Days  
Heating Degree Days 27 38  
Month to date heating degree days 863  
Since 1 July heating degree days 1963  
Cooling Degree Days 0 0  
Month to date cooling degree days 0  
Year to date cooling degree days 1094  
Moisture  
Dew Point 26 °F    
Average Humidity 66    
Maximum Humidity 79    
Minimum Humidity 50    
Precipitation  
Precipitation 0.00 in 0.06 in 1.02 in (1915)
Month to date precipitation 1.90  
Year to date precipitation 36.98  
Sea Level Pressure  
Sea Level Pressure 30.32 in    
Wind  
Wind Speed 9 mph (West)    
Max Wind Speed 16 mph    
Max Gust Speed 22 mph    
Visibility 10 miles    
Events      
T = Trace of Precipitation, MM = Missing Value Source: NWS Daily Summary

Daily Weather History Graph

Daily Weather History Graph

Search for Another Location

Airport:

Trip Planner

Search our weather history database for the weather conditions in past years. The results will help you decide how hot, cold, wet, or windy it might be!

Date:

Astronomy

Dec. 25, 2011 Rise Set
Actual Time 7:24 AM CST 4:45 PM CST
Civil Twilight 6:54 AM CST 5:15 PM CST
Nautical Twilight 6:20 AM CST 5:49 PM CST
Astronomical Twilight 5:47 AM CST 6:22 PM CST
Moon 8:02 AM CST (12/25) 6:05 PM CST (12/25)
Length of Visible Light 10h 21m
Length of Day
9h 20m
New Moon, 1% of the Moon is Illuminated
Dec 25
New Moon
Jan 1
First Quarter
Jan 9
Full
Jan 16
Last Quarter
Jan 23
New

Hourly Weather History & Observations

Time (CST) Temp. Windchill Dew Point Humidity Pressure Visibility Wind Dir Wind Speed Gust Speed Precip Events Conditions
12:54 AM 33.1 °F 25.5 °F 26.1 °F 75% 30.29 in 10.0 mi SW 9.2 mph - N/A   Clear
1:54 AM 32.0 °F 25.6 °F 26.1 °F 79% 30.29 in 10.0 mi WSW 6.9 mph - N/A   Clear
2:54 AM 30.9 °F 22.2 °F 25.0 °F 79% 30.27 in 10.0 mi SW 10.4 mph - N/A   Clear
3:54 AM 32.0 °F 24.2 °F 25.0 °F 75% 30.25 in 10.0 mi SW 9.2 mph - N/A   Clear
4:54 AM 30.9 °F 25.2 °F 25.0 °F 79% 30.25 in 10.0 mi SW 5.8 mph - N/A   Clear
5:54 AM 30.0 °F 23.2 °F 24.1 °F 79% 30.25 in 10.0 mi WSW 6.9 mph - N/A   Clear
6:54 AM 30.9 °F 22.8 °F 24.1 °F 76% 30.26 in 10.0 mi WSW 9.2 mph - N/A   Clear
7:54 AM 32.0 °F 23.6 °F 25.0 °F 75% 30.28 in 10.0 mi WSW 10.4 mph - N/A   Clear
8:54 AM 35.1 °F 26.4 °F 26.1 °F 70% 30.30 in 10.0 mi WSW 12.7 mph - N/A   Clear
9:54 AM 37.9 °F 29.6 °F 27.0 °F 65% 30.34 in 10.0 mi WNW 13.8 mph - N/A   Clear
10:54 AM 41.0 °F 32.8 °F 27.0 °F 57% 30.35 in 10.0 mi WNW 16.1 mph - N/A   Clear
11:54 AM 44.1 °F 36.8 °F 28.0 °F 53% 30.33 in 10.0 mi WNW 16.1 mph - N/A   Clear
12:54 PM 46.0 °F 40.2 °F 28.9 °F 51% 30.32 in 10.0 mi NW 12.7 mph - N/A   Clear
1:54 PM 46.9 °F - 28.9 °F 50% 30.32 in 10.0 mi NW 12.7 mph 21.9 mph N/A   Clear
2:54 PM 46.9 °F - 28.9 °F 50% 30.32 in 10.0 mi NW 11.5 mph - N/A   Clear
3:54 PM 45.0 °F 40.6 °F 28.9 °F 53% 30.34 in 10.0 mi WNW 8.1 mph - N/A   Clear
4:54 PM 42.1 °F 39.2 °F 27.0 °F 55% 30.35 in 10.0 mi West 4.6 mph - N/A   Clear
5:54 PM 39.0 °F 36.8 °F 26.1 °F 60% 30.38 in 10.0 mi WSW 3.5 mph - N/A   Clear
6:54 PM 39.9 °F 36.7 °F 26.1 °F 58% 30.38 in 10.0 mi West 4.6 mph - N/A   Clear
7:54 PM 36.0 °F 33.3 °F 26.1 °F 67% 30.39 in 10.0 mi NW 3.5 mph - N/A   Clear
8:54 PM 37.9 °F - 26.1 °F 62% 30.39 in 10.0 mi Calm Calm - N/A   Clear
9:54 PM 33.1 °F 30.0 °F 25.0 °F 72% 30.39 in 10.0 mi SW 3.5 mph - N/A   Clear
10:54 PM 33.1 °F - 25.0 °F 72% 30.39 in 10.0 mi Calm Calm - N/A   Clear
11:54 PM 32.0 °F 28.7 °F 24.1 °F 73% 30.37 in 10.0 mi SW 3.5 mph - N/A   Clear